Location: Nians�bougou
(13.2321°N, 4.9818°W)
Time: 18:15:27
(UTC+00:00)

Cosmos 1766 Rocket - Pass Details

Date: 18 February 2020
Orbit: 606 x 632 km, 82.5° (Epoch: 03 April)

Event Time Altitude Azimuth Distance (km) Brightness Sun altitude
Exits shadow 04:49:20 52° 122° (ESE) 767 4.2 -27.8°
Drops below altitude 10° 04:53:03 10° 165° (SSE) 1,987 6.4 -26.9°
Sets 04:55:18 0° 169° (SSE) 2,897 7.2 -26.4°
